When you browse on this site, cookies collect data to enhance your experience and personalize the content and advertising you see.
Visit our Privacy Policy to learn more. By continuing to use the site, you agree to this use of cookies and data.
  • In Österreich
  • Länderverzeichnis
  • Für 7 Tage
  • Wassertemperatur
  • Wetterkarte
  • News
  • Widgets
  • user-avatar
    Anmelden

    Stündliche Wetter Zasillya

    Heute, 13 Dezember, Freitag

    Zeit Temperatur Niederschläge Wind Luftdruck Luftfeuchtigkeit
    00:00 +1°C° 0 mm 6 m/S 754 mmHg 85%
    01:00 +2°C° 0 mm 6 m/S 754 mmHg 84%
    02:00 +2°C° 0 mm 6 m/S 754 mmHg 83%
    03:00 +2°C° 0 mm 6 m/S 753 mmHg 83%
    04:00 +1°C° 0 mm 6 m/S 753 mmHg 83%
    05:00 +1°C° 0 mm 6 m/S 752 mmHg 82%
    06:00 +1°C° 0 mm 6 m/S 752 mmHg 83%
    07:00 +1°C° 0 mm 6 m/S 752 mmHg 83%
    08:00 +1°C° 0 mm 6 m/S 752 mmHg 83%
    09:00 +1°C° 0 mm 6 m/S 752 mmHg 82%
    10:00 +1°C° 0 mm 6 m/S 752 mmHg 81%
    11:00 +1°C° 0 mm 6 m/S 751 mmHg 80%
    12:00 +2°C° 0 mm 6 m/S 751 mmHg 78%
    13:00 +2°C° 0 mm 6 m/S 751 mmHg 75%
    14:00 +3°C° 0 mm 6 m/S 751 mmHg 73%
    15:00 +3°C° 0 mm 6 m/S 750 mmHg 75%
    16:00 +2°C° 0 mm 6 m/S 750 mmHg 76%
    17:00 +2°C° 0 mm 6 m/S 750 mmHg 78%
    18:00 +2°C° 0.1 mm 6 m/S 750 mmHg 79%
    19:00 +2°C° 0.1 mm 6 m/S 750 mmHg 80%
    20:00 +2°C° 0.1 mm 6 m/S 750 mmHg 81%
    21:00 +2°C° 0.3 mm 6 m/S 749 mmHg 83%
    22:00 +2°C° 0.3 mm 5 m/S 749 mmHg 85%
    23:00 +3°C° 0.3 mm 5 m/S 749 mmHg 87%

    Morgen, 14 Dezember, Samstag

    Zeit Temperatur Niederschläge Wind Luftdruck Luftfeuchtigkeit
    00:00 +3°C° 0 mm 5 m/S 749 mmHg 89%
    01:00 +4°C° 0 mm 4 m/S 749 mmHg 90%
    02:00 +4°C° 0 mm 4 m/S 749 mmHg 91%
    03:00 +4°C° 0 mm 4 m/S 748 mmHg 93%
    04:00 +4°C° 0 mm 3 m/S 748 mmHg 94%
    05:00 +4°C° 0 mm 3 m/S 748 mmHg 96%
    06:00 +5°C° 0 mm 3 m/S 748 mmHg 96%
    07:00 +5°C° 0 mm 3 m/S 749 mmHg 97%
    08:00 +7°C° 0 mm 3 m/S 749 mmHg 97%
    09:00 +8°C° 0 mm 3 m/S 749 mmHg 95%
    10:00 +9°C° 0 mm 3 m/S 749 mmHg 93%
    11:00 +10°C° 0 mm 3 m/S 749 mmHg 90%
    12:00 +10°C° 0 mm 3 m/S 750 mmHg 87%
    13:00 +11°C° 0 mm 3 m/S 750 mmHg 84%
    14:00 +11°C° 0 mm 3 m/S 750 mmHg 81%
    15:00 +10°C° 0.1 mm 3 m/S 750 mmHg 84%
    16:00 +10°C° 0.1 mm 3 m/S 750 mmHg 88%
    17:00 +9°C° 0.1 mm 2 m/S 751 mmHg 91%
    18:00 +9°C° 0 mm 2 m/S 751 mmHg 92%
    19:00 +9°C° 0 mm 3 m/S 752 mmHg 94%
    20:00 +9°C° 0 mm 3 m/S 752 mmHg 95%
    21:00 +8°C° 0 mm 3 m/S 752 mmHg 95%
    22:00 +8°C° 0 mm 2 m/S 753 mmHg 95%
    23:00 +8°C° 0 mm 2 m/S 753 mmHg 95%

    übermorgen, 15 Dezember, Sonntag

    Zeit Temperatur Niederschläge Wind Luftdruck Luftfeuchtigkeit
    00:00 +8°C° 0 mm 2 m/S 753 mmHg 94%
    01:00 +7°C° 0 mm 2 m/S 753 mmHg 94%
    02:00 +7°C° 0 mm 2 m/S 754 mmHg 94%
    03:00 +7°C° 0 mm 2 m/S 754 mmHg 93%
    04:00 +7°C° 0 mm 2 m/S 754 mmHg 93%
    05:00 +8°C° 0 mm 3 m/S 754 mmHg 93%
    06:00 +8°C° 1.3 mm 3 m/S 754 mmHg 94%
    07:00 +8°C° 1.3 mm 3 m/S 754 mmHg 95%
    08:00 +8°C° 1.3 mm 3 m/S 755 mmHg 97%
    09:00 +9°C° 0.7 mm 3 m/S 755 mmHg 94%
    10:00 +9°C° 0.7 mm 3 m/S 755 mmHg 90%
    11:00 +8°C° 0.7 mm 4 m/S 756 mmHg 87%
    12:00 +10°C° 0 mm 4 m/S 756 mmHg 81%
    13:00 +10°C° 0 mm 4 m/S 756 mmHg 75%
    14:00 +10°C° 0 mm 5 m/S 757 mmHg 69%
    15:00 +10°C° 0 mm 4 m/S 757 mmHg 69%
    16:00 +8°C° 0 mm 4 m/S 758 mmHg 69%
    17:00 +8°C° 0 mm 3 m/S 759 mmHg 70%
    18:00 +7°C° 0 mm 3 m/S 759 mmHg 73%
    19:00 +5°C° 0 mm 3 m/S 760 mmHg 76%
    20:00 +5°C° 0 mm 3 m/S 761 mmHg 79%
    21:00 +4°C° 0 mm 3 m/S 761 mmHg 80%
    22:00 +5°C° 0 mm 2 m/S 762 mmHg 81%
    23:00 +5°C° 0 mm 2 m/S 762 mmHg 82%

    16 Dezember, Montag

    Zeit Temperatur Niederschläge Wind Luftdruck Luftfeuchtigkeit
    00:00 +4°C° 0 mm 2 m/S 762 mmHg 82%
    01:00 +5°C° 0 mm 1 m/S 763 mmHg 82%
    02:00 +5°C° 0 mm 1 m/S 763 mmHg 81%
    03:00 +5°C° 0 mm 1 m/S 763 mmHg 80%
    04:00 +5°C° 0 mm 1 m/S 763 mmHg 79%
    05:00 +5°C° 0 mm 1 m/S 763 mmHg 79%
    06:00 +5°C° 0 mm 1 m/S 764 mmHg 77%
    07:00 +5°C° 0 mm 1 m/S 764 mmHg 76%
    08:00 +5°C° 0 mm 1 m/S 764 mmHg 75%
    09:00 +5°C° 0 mm 2 m/S 764 mmHg 71%
    10:00 +6°C° 0 mm 2 m/S 765 mmHg 67%
    11:00 +8°C° 0 mm 3 m/S 765 mmHg 63%
    12:00 +8°C° 0 mm 3 m/S 765 mmHg 61%
    13:00 +8°C° 0 mm 4 m/S 764 mmHg 59%
    14:00 +10°C° 0 mm 4 m/S 764 mmHg 58%
    15:00 +8°C° 0 mm 4 m/S 764 mmHg 64%
    16:00 +7°C° 0 mm 3 m/S 764 mmHg 70%
    17:00 +5°C° 0 mm 3 m/S 764 mmHg 76%
    18:00 +5°C° 0 mm 3 m/S 764 mmHg 78%
    19:00 +5°C° 0 mm 3 m/S 764 mmHg 80%
    20:00 +5°C° 0 mm 3 m/S 764 mmHg 82%
    21:00 +5°C° 0 mm 3 m/S 764 mmHg 83%
    22:00 +5°C° 0 mm 3 m/S 764 mmHg 84%
    23:00 +5°C° 0 mm 3 m/S 764 mmHg 85%

    17 Dezember, Dienstag

    Zeit Temperatur Niederschläge Wind Luftdruck Luftfeuchtigkeit
    00:00 +5°C° 0 mm 3 m/S 764 mmHg 86%
    01:00 +4°C° 0 mm 3 m/S 764 mmHg 87%
    02:00 +4°C° 0 mm 3 m/S 764 mmHg 88%
    03:00 +4°C° 0 mm 3 m/S 764 mmHg 88%
    04:00 +4°C° 0 mm 3 m/S 764 mmHg 88%
    05:00 +4°C° 0 mm 3 m/S 763 mmHg 89%
    06:00 +4°C° 0 mm 3 m/S 764 mmHg 90%
    07:00 +4°C° 0 mm 3 m/S 764 mmHg 90%
    08:00 +4°C° 0 mm 3 m/S 764 mmHg 91%
    09:00 +6°C° 0 mm 4 m/S 764 mmHg 85%
    10:00 +8°C° 0 mm 5 m/S 764 mmHg 79%
    11:00 +9°C° 0 mm 5 m/S 764 mmHg 73%
    12:00 +10°C° 0 mm 5 m/S 763 mmHg 70%
    13:00 +10°C° 0 mm 6 m/S 763 mmHg 67%
    14:00 +10°C° 0 mm 6 m/S 763 mmHg 64%
    15:00 +9°C° 0 mm 5 m/S 763 mmHg 70%
    16:00 +8°C° 0 mm 5 m/S 763 mmHg 76%
    17:00 +7°C° 0 mm 4 m/S 763 mmHg 83%
    18:00 +7°C° 0 mm 4 m/S 762 mmHg 85%
    19:00 +7°C° 0 mm 4 m/S 762 mmHg 88%
    20:00 +6°C° 0 mm 4 m/S 762 mmHg 91%
    21:00 +6°C° 0 mm 4 m/S 762 mmHg 91%
    22:00 +6°C° 0 mm 4 m/S 762 mmHg 92%
    23:00 +6°C° 0 mm 4 m/S 762 mmHg 92%

    18 Dezember, Mittwoch

    Zeit Temperatur Niederschläge Wind Luftdruck Luftfeuchtigkeit
    00:00 +6°C° 0 mm 4 m/S 762 mmHg 93%
    01:00 +6°C° 0 mm 4 m/S 762 mmHg 93%
    02:00 +6°C° 0 mm 4 m/S 762 mmHg 93%
    03:00 +6°C° 0 mm 4 m/S 762 mmHg 93%
    04:00 +6°C° 0 mm 4 m/S 761 mmHg 93%
    05:00 +6°C° 0 mm 4 m/S 761 mmHg 93%
    06:00 +6°C° 0 mm 4 m/S 761 mmHg 94%
    07:00 +6°C° 0 mm 4 m/S 761 mmHg 94%
    08:00 +6°C° 0 mm 4 m/S 761 mmHg 94%
    09:00 +8°C° 0 mm 5 m/S 761 mmHg 88%
    10:00 +9°C° 0 mm 5 m/S 761 mmHg 82%
    11:00 +10°C° 0 mm 6 m/S 761 mmHg 76%
    12:00 +10°C° 0 mm 5 m/S 761 mmHg 72%
    13:00 +12°C° 0 mm 5 m/S 760 mmHg 67%
    14:00 +12°C° 0 mm 4 m/S 760 mmHg 63%
    15:00 +11°C° 0 mm 4 m/S 760 mmHg 65%
    16:00 +10°C° 0 mm 3 m/S 760 mmHg 67%
    17:00 +9°C° 0 mm 3 m/S 760 mmHg 70%
    18:00 +8°C° 0 mm 3 m/S 761 mmHg 67%
    19:00 +8°C° 0 mm 3 m/S 761 mmHg 65%
    20:00 +8°C° 0 mm 3 m/S 761 mmHg 63%
    21:00 +8°C° 0 mm 3 m/S 761 mmHg 68%
    22:00 +7°C° 0 mm 3 m/S 762 mmHg 72%
    23:00 +7°C° 0 mm 3 m/S 762 mmHg 77%
    Mehr zeigen